#timestamp,LO_Frequency,Hit,StdDev 
1533085215.5,286047000.5,N
1533085235.3,286047000.6,N
1533085255.1,286047000.1,N
1533085275.9,286047000.2,N
1533085295.7,286046999.9,N
1533085315.5,286047000.2,N
1533085335.4,286047000.5,N
1533085355.2,286047002.4,Y
1533085375.1,286046999.9,P
1533085376.0,286046999.9,N
1533085395.8,286047002.8,P
1533085415.6,286047002.8,N
1533085435.5,286046999.8,N
1533085455.3,286047000.6,N
1533085475.1,286047000.3,N
1533085495.9,286046999.7,N
1533085515.7,286047000.0,N
1533085535.6,286047000.1,N
1533085555.4,286047002.3,N
1533085575.2,286047002.4,N
1533085595.1,286047002.3,N
1533085596.0,286047002.3,N
1533085615.8,286046999.8,N
1533085635.6,286047002.8,N
1533085655.5,286047002.3,N
1533085675.3,286047002.7,N
1533085695.2,286047000.4,N
1533085715.9,286046999.7,N
1533085735.7,286046999.7,N
1533085755.6,286047000.1,N
1533085775.4,286046999.8,N
1533085795.2,286047002.8,N
1533085815.1,286047002.8,N
1533085816.0,286047002.8,N
1533085835.8,286047002.5,N
1533085855.7,286046999.7,N
1533085875.5,286047000.1,N
1533085895.3,286047000.1,N
1533085915.2,286047002.2,N
1533085935.0,286047002.3,N
1533085935.9,286047002.3,N
1533085955.7,286046999.7,N
1533086005.6,286046999.7,E
1533086015.5,286047001.9,N
1533086035.4,286047001.9,P
1533086055.2,286047002.6,P
1533086075.1,286047001.4,Y
1533086076.0,286047001.4,P
1533086095.8,286047000.2,N
1533086115.6,286046999.9,N
1533086135.5,286047000.2,N
1533086155.3,286047000.1,N
1533086175.1,286047000.1,N
1533086195.9,286046999.9,N
1533086215.7,286046999.9,N
1533086235.6,286046999.9,N
1533086255.4,286046999.8,N
1533086275.2,286047002.7,Y
1533086295.1,286047001.0,P
1533086296.0,286047001.0,N
1533086315.8,286046999.9,N
1533086335.6,286047000.7,N
1533086355.5,286047000.5,N
1533086375.3,286047001.0,N
1533086395.2,286047000.7,N
1533086415.9,286047000.6,N
1533086435.7,286047000.4,N
1533086455.6,286047002.8,Y
1533086475.4,286047000.0,P
1533086495.2,286047000.1,N
1533086515.1,286047000.5,N
1533086516.0,286047000.5,N
1533086535.8,286046999.9,N
1533086555.7,286047002.6,Y
1533086575.5,286046999.8,P
1533086595.3,286046999.7,N
1533086615.2,286047000.9,P
1533086635.0,286047000.0,N
1533086635.9,286047000.0,N
1533086655.8,286047000.0,N
1533086675.6,286047000.1,N
1533086695.4,286047002.6,Y
1533086715.3,286047002.2,P
1533086735.1,286047002.0,N
1533086755.9,286047002.3,N
1533086775.7,286047002.3,N
1533086795.5,286047001.6,N
1533086815.4,286047002.7,Y
1533086835.2,286047000.6,P
1533086855.0,286046998.1,P
1533086856.0,286046998.1,N
1533086875.8,286046998.2,N
1533086895.6,286047000.4,N
1533086915.5,286047001.1,N
1533086935.3,286047000.4,N
1533086955.1,286046999.9,N
1533086975.9,286047000.4,N
1533086995.7,286046999.7,N
1533087015.6,286046999.9,N
1533087035.4,286047002.4,N
1533087055.2,286047000.5,N
1533087075.1,286047000.6,N
1533087076.0,286047000.6,N
1533087095.8,286046999.7,N
1533087115.7,286047000.0,N
1533087135.5,286047002.6,N
1533087155.3,286046999.9,N
1533087175.2,286047000.3,N
1533087195.0,286047000.0,N
1533087195.9,286047000.0,N
1533087215.7,286046999.9,N
1533087235.6,286047000.9,N
1533087255.4,286047000.3,N
1533087275.3,286047002.5,N
1533087295.1,286047002.8,N
1533087296.0,286047002.8,N
1533087315.8,286046999.7,N
1533087335.7,286047000.1,N
1533087355.5,286047002.2,N
1533087375.3,286046999.7,N
1533087395.2,286047002.7,N
1533087415.0,286047002.8,N
1533087415.9,286047002.8,N
1533087435.8,286047002.4,N
1533087455.6,286047000.3,N
1533087475.4,286046999.8,N
1533087495.3,286046999.7,N
1533087515.1,286047002.5,N
1533087535.8,286047002.0,N
1533087555.7,286047002.0,N
1533087575.5,286047001.6,N
1533087595.4,286047001.6,N
1533087615.2,286047002.1,N
1533087635.0,286047002.1,N
1533087635.9,286047002.1,N
1533087655.8,286047002.3,N
1533087675.6,286047002.6,N
1533087695.5,286047004.1,Y
1533087715.3,286046999.7,P
1533087735.1,286047002.5,N
1533087755.9,286047002.8,N
1533087775.7,286047000.4,N
1533087825.6,286047002.8,E
1533087835.5,286047000.6,N
1533087855.3,286046996.5,P
1533087875.2,286046996.6,N
1533087895.0,286046996.7,N
1533087895.9,286046996.7,N
1533087915.8,286046996.5,N
1533087935.6,286046999.1,N
1533087955.4,286046998.8,N
1533087975.3,286046998.8,N
1533087995.1,286046998.8,N
1533088015.9,286046998.4,N
1533088035.7,286046999.6,N
1533088055.5,286046999.2,N
1533088075.4,286046999.0,N
1533088095.2,286046999.0,N
1533088115.0,286046999.6,N
1533088135.3,286046998.8,N
1533088155.1,286046998.8,N
1533088156.0,286046998.8,N
1533088175.8,286046999.0,N
1533088195.7,286046999.4,N
1533088215.5,286047001.2,N
1533088235.3,286046998.5,N
1533088255.2,286046998.1,N
1533088275.0,286046998.2,N
1533088275.9,286046998.2,N
1533088295.8,286046998.5,N
1533088315.6,286046998.7,N
1533088335.4,286047000.7,N
1533088355.3,286046998.7,N
1533088375.1,286046998.4,N
1533088395.9,286046998.4,N
1533088415.7,286046998.6,N
1533088435.5,286046998.8,N
1533088455.4,286046998.4,N
1533088475.2,286046998.1,N
1533088495.0,286047001.2,N
1533088495.9,286047001.2,N
1533088515.8,286046998.2,N
1533088535.6,286046998.8,N
1533088555.5,286046998.9,N
1533088575.3,286046998.7,N
1533088595.1,286046998.7,N
1533088615.9,286046998.5,N
1533088635.7,286046998.4,N
1533088655.5,286046998.8,N
1533088675.4,286046998.7,N
1533088695.2,286046998.6,N
1533088715.1,286046998.2,N
1533088716.0,286046998.2,N
1533088735.8,286046998.2,N
1533088755.7,286046998.6,N
1533088775.5,286046998.3,N
1533088795.3,286046998.4,N
